This is the latest recevied weather packets stored in our database for station/object DM5KA-13. If no packets are shown the sender has not sent any weather packets the latest 1 day(s).
| Time | Temp. | Humidity | Pressure | Rain* | Wind** | Luminosity | Snow |
|---|---|---|---|---|---|---|---|
| 1778009137 | 16.11° C | 80% | 1007.1 hPa | 0 mm | 0.45 m/s, 0° | - | - |
| 1778008813 | 16.11° C | 80% | 1007.1 hPa | 0 mm | 0.45 m/s, 0° | - | - |
| 1778008512 | 16.11° C | 79% | 1007.1 hPa | 0 mm | 0 m/s | - | - |
| 1778008212 | 16.11° C | 79% | 1007.1 hPa | 0 mm | 0.45 m/s, 0° | - | - |
| 1778007913 | 17.22° C | 77% | 1007.3 hPa | 0 mm | 0.45 m/s, 0° | - | - |
| 1778007613 | 17.78° C | 70% | 1007.4 hPa | 0 mm | 0.45 m/s, 0° | - | - |
| 1778007313 | 17.78° C | 72% | 1007.4 hPa | 0 mm | 0.45 m/s, 0° | - | - |
| 1778007013 | 17.22° C | 72% | 1007.5 hPa | 0 mm | 0.45 m/s, 0° | - | - |
| 1778006713 | 17.78° C | 74% | 1007.6 hPa | 0 mm | 0.45 m/s, 0° | - | - |
| 1778006413 | 17.78° C | 72% | 1007.6 hPa | 0 mm | 0.45 m/s, 0° | - | - |
| 1778006112 | 17.78° C | 67% | 1007.7 hPa | 0 mm | 0.45 m/s, 0° | - | - |
| 1778005812 | 17.78° C | 73% | 1007.7 hPa | 0 mm | 0.45 m/s, 0° | - | - |
| 1778005512 | 18.89° C | 70% | 1007.7 hPa | 0 mm | 0.45 m/s, 0° | - | - |
| 1778005213 | 17.78° C | 70% | 1007.7 hPa | 0 mm | 0 m/s | - | - |
| 1778004925 | 17.78° C | 72% | 1007.7 hPa | 0 mm | 0 m/s | - | - |
| 1778004625 | 17.78° C | 75% | 1007.7 hPa | 0 mm | 0.89 m/s, 0° | - | - |
| 1778004324 | 18.89° C | 70% | 1007.7 hPa | 0 mm | 0.45 m/s, 0° | - | - |
| 1778004024 | 18.89° C | 70% | 1007.7 hPa | 0 mm | 0.45 m/s, 0° | - | - |
| 1778003725 | 17.78° C | 69% | 1008.1 hPa | 0 mm | 0.45 m/s, 0° | - | - |
| 1778003425 | 17.78° C | 73% | 1007.8 hPa | 0 mm | 0.45 m/s, 0° | - | - |
| 1778003124 | 17.78° C | 73% | 1007.9 hPa | 0 mm | 0.45 m/s, 0° | - | - |
| 1778002824 | 17.22° C | 74% | 1007.8 hPa | 0 mm | 0.45 m/s, 0° | - | - |
| 1778002524 | 17.22° C | 73% | 1007.8 hPa | 0 mm | 0.45 m/s, 0° | - | - |
| 1778002224 | 17.78° C | 72% | 1007.8 hPa | 0 mm | 0.45 m/s, 0° | - | - |
| 1778001924 | 17.78° C | 72% | 1007.9 hPa | 0 mm | 0.45 m/s, 0° | - | - |
* Rain latest hour (hover to see other rain measurements)
** Current wind speed in m/s (hover to see current wind gust speed)